• Em Portugal
  • Lista de países
  • Para 7 dias
  • Temperatura da água
  • Mapas de satélite
  • Mapa do tempo
  • Widgets de tempo
  • user-avatar
    Iniciar Sessão

    Previsão horária em Orlinoe

    Hoje, 25 Maio, Sexta-feira

    Tempo Temperatura Precipitação Vento Pressão Humidade
    00:00 +8°C° 0 mm 1 m/s 739 mmHg 93%
    01:00 +8°C° 0 mm 1 m/s 739 mmHg 93%
    02:00 +8°C° 0 mm 1 m/s 740 mmHg 94%
    03:00 +7°C° 0 mm 1 m/s 739 mmHg 95%
    04:00 +8°C° 0,2 mm 1 m/s 740 mmHg 95%
    05:00 +8°C° 0,2 mm 1 m/s 740 mmHg 95%
    06:00 +8°C° 0,2 mm 1 m/s 740 mmHg 95%
    07:00 +9°C° 0,1 mm 2 m/s 741 mmHg 90%
    08:00 +10°C° 0,1 mm 3 m/s 741 mmHg 85%
    09:00 +11°C° 0 mm 3 m/s 741 mmHg 81%
    10:00 +12°C° 0,2 mm 4 m/s 742 mmHg 76%
    11:00 +12°C° 0,2 mm 4 m/s 742 mmHg 71%
    12:00 +13°C° 0,2 mm 4 m/s 742 mmHg 66%
    13:00 +14°C° 0,3 mm 4 m/s 742 mmHg 64%
    14:00 +14°C° 0,3 mm 4 m/s 743 mmHg 63%
    15:00 +14°C° 0,3 mm 4 m/s 743 mmHg 61%
    16:00 +14°C° 0,1 mm 4 m/s 743 mmHg 62%
    17:00 +14°C° 0,1 mm 3 m/s 744 mmHg 63%
    18:00 +14°C° 0,1 mm 3 m/s 744 mmHg 65%
    19:00 +13°C° 0 mm 2 m/s 745 mmHg 73%
    20:00 +11°C° 0 mm 1 m/s 746 mmHg 80%
    21:00 +9°C° 0 mm 1 m/s 746 mmHg 88%
    22:00 +9°C° 0 mm 1 m/s 747 mmHg 89%
    23:00 +7°C° 0 mm 0 m/s 747 mmHg 90%

    Amanhã, 26 Maio, Sábado

    Tempo Temperatura Precipitação Vento Pressão Humidade
    00:00 +7°C° 0 mm 0 m/s 747 mmHg 91%
    01:00 +6°C° 0 mm 0 m/s 748 mmHg 92%
    02:00 +6°C° 0 mm 0 m/s 748 mmHg 92%
    03:00 +7°C° 0 mm 1 m/s 748 mmHg 93%
    04:00 +8°C° 0 mm 1 m/s 748 mmHg 91%
    05:00 +8°C° 0 mm 1 m/s 748 mmHg 89%
    06:00 +8°C° 0 mm 0 m/s 748 mmHg 86%
    07:00 +12°C° 0 mm 1 m/s 748 mmHg 76%
    08:00 +14°C° 0 mm 1 m/s 749 mmHg 65%
    09:00 +18°C° 0 mm 1 m/s 749 mmHg 55%
    10:00 +19°C° 0 mm 1 m/s 748 mmHg 50%
    11:00 +20°C° 0 mm 1 m/s 748 mmHg 46%
    12:00 +21°C° 0 mm 1 m/s 747 mmHg 42%
    13:00 +21°C° 0 mm 2 m/s 747 mmHg 41%
    14:00 +21°C° 0 mm 2 m/s 747 mmHg 40%
    15:00 +21°C° 0 mm 2 m/s 747 mmHg 40%
    16:00 +21°C° 0 mm 2 m/s 747 mmHg 46%
    17:00 +20°C° 0 mm 2 m/s 747 mmHg 51%
    18:00 +19°C° 0 mm 2 m/s 747 mmHg 57%
    19:00 +18°C° 0 mm 1 m/s 747 mmHg 65%
    20:00 +14°C° 0 mm 1 m/s 747 mmHg 72%
    21:00 +12°C° 0 mm 1 m/s 748 mmHg 80%
    22:00 +11°C° 0 mm 1 m/s 748 mmHg 82%
    23:00 +11°C° 0 mm 1 m/s 748 mmHg 84%

    Depois de amanhã, 27 Maio, Domingo

    Tempo Temperatura Precipitação Vento Pressão Humidade
    00:00 +10°C° 0 mm 1 m/s 748 mmHg 85%
    01:00 +10°C° 0 mm 1 m/s 748 mmHg 87%
    02:00 +9°C° 0 mm 1 m/s 748 mmHg 88%
    03:00 +9°C° 0 mm 1 m/s 748 mmHg 89%
    04:00 +10°C° 0 mm 1 m/s 748 mmHg 86%
    05:00 +10°C° 0 mm 1 m/s 748 mmHg 83%
    06:00 +11°C° 0 mm 1 m/s 748 mmHg 81%
    07:00 +14°C° 0 mm 1 m/s 748 mmHg 72%
    08:00 +16°C° 0 mm 1 m/s 747 mmHg 64%
    09:00 +19°C° 0 mm 2 m/s 747 mmHg 55%
    10:00 +20°C° 0 mm 2 m/s 747 mmHg 53%
    11:00 +21°C° 0 mm 2 m/s 747 mmHg 50%
    12:00 +23°C° 0 mm 2 m/s 747 mmHg 47%
    13:00 +21°C° 0 mm 2 m/s 747 mmHg 53%
    14:00 +20°C° 0 mm 2 m/s 746 mmHg 59%
    15:00 +19°C° 0 mm 2 m/s 746 mmHg 65%
    16:00 +18°C° 0,4 mm 2 m/s 746 mmHg 74%
    17:00 +16°C° 0,4 mm 2 m/s 746 mmHg 83%
    18:00 +14°C° 0,4 mm 2 m/s 746 mmHg 93%
    19:00 +14°C° 0,3 mm 1 m/s 747 mmHg 94%
    20:00 +13°C° 0,3 mm 1 m/s 747 mmHg 95%
    21:00 +13°C° 0,3 mm 1 m/s 747 mmHg 96%
    22:00 +13°C° 0,1 mm 1 m/s 747 mmHg 96%
    23:00 +12°C° 0,1 mm 1 m/s 747 mmHg 96%

    28 Maio, Segunda-feira

    Tempo Temperatura Precipitação Vento Pressão Humidade
    00:00 +12°C° 0,1 mm 1 m/s 747 mmHg 96%
    01:00 +12°C° 0,1 mm 1 m/s 747 mmHg 95%
    02:00 +12°C° 0,1 mm 1 m/s 747 mmHg 95%
    03:00 +12°C° 0,1 mm 1 m/s 747 mmHg 95%
    04:00 +12°C° 0,1 mm 1 m/s 747 mmHg 95%
    05:00 +12°C° 0,1 mm 1 m/s 747 mmHg 94%
    06:00 +12°C° 0,1 mm 1 m/s 747 mmHg 94%
    07:00 +14°C° 0 mm 1 m/s 747 mmHg 85%
    08:00 +16°C° 0 mm 1 m/s 747 mmHg 76%
    09:00 +19°C° 0 mm 1 m/s 747 mmHg 68%
    10:00 +21°C° 0 mm 1 m/s 747 mmHg 63%
    11:00 +22°C° 0 mm 1 m/s 747 mmHg 59%
    12:00 +24°C° 0 mm 1 m/s 746 mmHg 54%
    13:00 +24°C° 0 mm 1 m/s 746 mmHg 54%
    14:00 +24°C° 0 mm 1 m/s 746 mmHg 55%
    15:00 +24°C° 0 mm 1 m/s 746 mmHg 55%
    16:00 +23°C° 0,1 mm 1 m/s 746 mmHg 60%
    17:00 +22°C° 0,1 mm 1 m/s 746 mmHg 66%
    18:00 +21°C° 0,1 mm 1 m/s 746 mmHg 72%
    19:00 +19°C° 0 mm 1 m/s 746 mmHg 79%
    20:00 +18°C° 0 mm 1 m/s 746 mmHg 85%
    21:00 +15°C° 0 mm 1 m/s 747 mmHg 92%
    22:00 +14°C° 0 mm 1 m/s 747 mmHg 92%
    23:00 +14°C° 0 mm 1 m/s 747 mmHg 93%

    29 Maio, Terça-feira

    Tempo Temperatura Precipitação Vento Pressão Humidade
    00:00 +13°C° 0 mm 1 m/s 747 mmHg 94%
    01:00 +13°C° 0 mm 1 m/s 747 mmHg 94%
    02:00 +13°C° 0 mm 1 m/s 746 mmHg 94%
    03:00 +12°C° 0 mm 1 m/s 746 mmHg 94%
    04:00 +13°C° 0 mm 1 m/s 746 mmHg 92%
    05:00 +14°C° 0 mm 1 m/s 746 mmHg 90%
    06:00 +14°C° 0 mm 1 m/s 746 mmHg 87%
    07:00 +18°C° 0 mm 1 m/s 746 mmHg 77%
    08:00 +21°C° 0 mm 1 m/s 746 mmHg 66%
    09:00 +24°C° 0 mm 1 m/s 746 mmHg 55%
    10:00 +26°C° 0 mm 1 m/s 746 mmHg 50%
    11:00 +28°C° 0 mm 1 m/s 746 mmHg 44%
    12:00 +30°C° 0 mm 1 m/s 746 mmHg 38%
    13:00 +29°C° 0 mm 1 m/s 745 mmHg 42%
    14:00 +28°C° 0 mm 1 m/s 745 mmHg 45%
    15:00 +27°C° 0 mm 1 m/s 744 mmHg 49%
    16:00 +25°C° 0,2 mm 1 m/s 744 mmHg 55%
    17:00 +24°C° 0,2 mm 1 m/s 744 mmHg 61%
    18:00 +22°C° 0,2 mm 1 m/s 744 mmHg 66%
    19:00 +21°C° 0,1 mm 1 m/s 744 mmHg 70%
    20:00 +20°C° 0,1 mm 1 m/s 744 mmHg 74%
    21:00 +18°C° 0,1 mm 1 m/s 745 mmHg 78%
    22:00 +18°C° 0 mm 1 m/s 745 mmHg 79%
    23:00 +16°C° 0 mm 1 m/s 745 mmHg 80%

    30 Maio, Quarta-feira

    Tempo Temperatura Precipitação Vento Pressão Humidade
    00:00 +15°C° 0 mm 1 m/s 745 mmHg 81%
    01:00 +15°C° 0 mm 1 m/s 745 mmHg 81%
    02:00 +15°C° 0 mm 1 m/s 745 mmHg 82%
    03:00 +14°C° 0 mm 1 m/s 745 mmHg 83%
    04:00 +15°C° 0,1 mm 1 m/s 745 mmHg 84%
    05:00 +15°C° 0,1 mm 1 m/s 745 mmHg 84%
    06:00 +15°C° 0,1 mm 1 m/s 745 mmHg 85%
    07:00 +18°C° 0,1 mm 1 m/s 745 mmHg 79%
    08:00 +20°C° 0,1 mm 1 m/s 745 mmHg 74%
    09:00 +22°C° 0,1 mm 1 m/s 745 mmHg 68%
    10:00 +23°C° 0,3 mm 1 m/s 744 mmHg 67%
    11:00 +24°C° 0,3 mm 1 m/s 744 mmHg 65%
    12:00 +25°C° 0,3 mm 1 m/s 744 mmHg 63%
    13:00 +25°C° 1,5 mm 1 m/s 743 mmHg 68%
    14:00 +24°C° 1,5 mm 1 m/s 743 mmHg 73%
    15:00 +23°C° 1,5 mm 1 m/s 743 mmHg 77%
    16:00 +23°C° 1,1 mm 1 m/s 743 mmHg 81%
    17:00 +22°C° 1,1 mm 1 m/s 743 mmHg 84%
    18:00 +22°C° 1,1 mm 1 m/s 743 mmHg 87%
    19:00 +20°C° 0,1 mm 1 m/s 743 mmHg 89%
    20:00 +19°C° 0,1 mm 1 m/s 743 mmHg 92%
    21:00 +18°C° 0,1 mm 1 m/s 743 mmHg 94%
    22:00 +16°C° 0,2 mm 1 m/s 743 mmHg 95%
    23:00 +16°C° 0,2 mm 1 m/s 743 mmHg 96%
    Mostrar mais